Home > Weather > Hereford > Past weeks

Flag for USA Weather for the Past 2 Weeks in Hereford, Texas, USA

Now
48 °F

Clear.


Feels Like: 44 °F
Forecast: 40 / 79 °F
Wind: 9 mph from Northeast

Location: Clovis Municipal

Current Time: May 3, 2016 at 11:30:34 PM

Latest Report: May 3, 2016 at 10:35 PM


Visibility: 10 mi

Pressure: 30.21 "Hg (26.23 "Hg at 1167m altitude)

Humidity: 54%

Dew Point: 32 °F

Location of HerefordLocation

Historic Weather in Hereford — Graph

°F

Hereford Temperature Yesterday

Maximum temperature yesterday: 63 °F (at 4:55 PM)
Minimum temperature yesterday: 36 °F (at 5:55 AM)
Average temperature yesterday: 48 °F

High & Low Weather Summary for the Past Weeks

 TemperatureHumidityPressure
High82 °F (Apr 23, 3:15 PM)93% (Apr 20, 1:35 AM)30.31 "Hg (Apr 20, 1:35 AM)
Low36 °F (Apr 30, 6:55 AM)11% (Apr 28, 6:55 PM)29.67 "Hg (Apr 25, 6:35 PM)
Average57 °F52%29.97 "Hg
* Reported Apr 18 9:35 PM — May 3 9:55 PM, Hereford, Weather by CustomWeather, © 2016

Note: Actual official high and low records may vary slightly from our data, if they occured in-between our weather recording intervals... More about our weather records

Advertising

Hereford Weather History for the Previous 24 Hours

Scroll right to see more
 ConditionsComfort  
Time TempWeatherWind HumidityBarometerVisibility
9:55 PM
Tue, May 3
54 °FClear.8 mph44%30.20 "Hg10 mi
9:35 PM54 °FSunny.8 mph44%30.18 "Hg10 mi
9:15 PM54 °FSunny.7 mph41%30.18 "Hg10 mi
8:55 PM57 °FSunny.6 mph36%30.18 "Hg10 mi
8:35 PM61 °FSunny.8 mph31%30.17 "Hg10 mi
8:15 PM64 °FSunny.10 mph26%30.16 "Hg10 mi
7:55 PM66 °FSunny.17 mph22%30.16 "Hg10 mi
7:35 PM68 °FSunny.14 mph23%30.15 "Hg10 mi
7:15 PM70 °FSunny.16 mph21%30.15 "Hg10 mi
6:55 PM70 °FSunny.14 mph23%30.14 "Hg10 mi
6:35 PM70 °FSunny.10 mph23%30.15 "Hg10 mi
5:55 PM72 °FScattered clouds.15 mph25%30.14 "Hg10 mi
5:35 PM72 °FScattered clouds.17 mph27%30.14 "Hg10 mi
4:55 PM70 °FPassing clouds.12 mph29%30.14 "Hg10 mi
4:35 PM70 °FScattered clouds.14 mph29%30.15 "Hg10 mi
4:15 PM70 °FPassing clouds.15 mph29%30.15 "Hg10 mi
3:55 PM70 °FPassing clouds.16 mph33%30.15 "Hg10 mi
3:35 PM70 °FSunny.16 mph33%30.15 "Hg10 mi
3:15 PM70 °FPassing clouds.16 mph33%30.15 "Hg10 mi
2:55 PM70 °FSunny.15 mph33%30.16 "Hg10 mi
2:35 PM68 °FSunny.14 mph35%30.15 "Hg10 mi
2:15 PM68 °FSunny.18 mph35%30.16 "Hg10 mi
1:55 PM68 °FSunny.18 mph35%30.15 "Hg10 mi
1:35 PM66 °FSunny.13 mph37%30.15 "Hg10 mi
1:15 PM64 °FPassing clouds.8 mph40%30.15 "Hg10 mi
12:55 PM66 °FPartly sunny.9 mph43%30.16 "Hg10 mi
12:35 PM66 °FPassing clouds.15 mph37%30.15 "Hg10 mi
12:15 PM66 °FSunny.10 mph37%30.16 "Hg10 mi
11:55 AM64 °FPassing clouds.12 mph40%30.16 "Hg10 mi
11:35 AM63 °FSunny.15 mph42%30.16 "Hg10 mi
11:15 AM63 °FSunny.16 mph42%30.15 "Hg10 mi
10:55 AM61 °FSunny.14 mph42%30.15 "Hg10 mi
10:35 AM61 °FSunny.18 mph42%30.15 "Hg10 mi
10:15 AM59 °FSunny.16 mph45%30.14 "Hg10 mi
9:55 AM55 °FSunny.12 mph51%30.14 "Hg10 mi
9:35 AM55 °FSunny.10 mph55%30.14 "Hg10 mi
9:15 AM54 °FSunny.12 mph54%30.14 "Hg10 mi
8:55 AM52 °FSunny.6 mph58%30.14 "Hg10 mi
8:35 AM48 °FSunny.8 mph71%30.13 "Hg10 mi
8:15 AM45 °FSunny.8 mph76%30.13 "Hg10 mi
7:55 AM43 °FClear.8 mph76%30.12 "Hg10 mi
7:15 AM36 °FClear.8 mph81%30.11 "Hg10 mi
6:35 AM37 °FClear.No wind75%30.11 "Hg10 mi
6:15 AM39 °FClear.No wind70%30.11 "Hg10 mi
5:55 AM41 °FClear.6 mph66%30.11 "Hg10 mi
5:35 AM39 °FClear.No wind70%30.12 "Hg10 mi
5:15 AM37 °FClear.No wind75%30.12 "Hg10 mi
4:55 AM39 °FClear.No wind70%30.12 "Hg10 mi
4:35 AM43 °FClear.No wind61%30.12 "Hg10 mi
4:15 AM43 °FClear.6 mph61%30.12 "Hg10 mi
3:55 AM43 °FClear.7 mph66%30.13 "Hg10 mi
3:35 AM43 °FClear.6 mph66%30.13 "Hg10 mi
3:15 AM43 °FClear.5 mph61%30.14 "Hg10 mi
2:55 AM43 °FClear.5 mph66%30.15 "Hg10 mi
2:15 AM45 °FClear.6 mph61%30.16 "Hg10 mi
1:35 AM45 °FClear.7 mph66%30.16 "Hg10 mi
1:15 AM45 °FClear.3 mph66%30.17 "Hg10 mi
12:35 AM46 °FClear.5 mph62%30.16 "Hg10 mi
11:55 PM
Mon, May 2
48 °FClear.6 mph58%30.17 "Hg10 mi
11:35 PM48 °FClear.7 mph58%30.17 "Hg10 mi
Weather by CustomWeather, © 2016

See weather overviewHow to use our weather pages